FW9039 Weather Reports


time (UTC)temp
F
wind
direction
speed
knots
gust
knots
rain 1hr
in
rain 24hr
in
rain mn
in
humidity
%
barometer
mb
20260505125009 48 0 0.0 0.9 0.00 0.00 0.00 76 1008.8
20260505124534 48 0 0.0 0.9 0.00 0.00 0.00 76 1008.7
20260505124011 48 0 0.0 0.9 0.00 0.00 0.00 76 1008.7
20260505123514 48 0 0.0 0.0 0.00 0.00 0.00 77 1008.6
20260505123031 48 0 0.0 0.9 0.00 0.00 0.00 77 1008.6
20260505122513 48 0 0.0 0.9 0.00 0.00 0.00 75 1008.3
20260505122010 48 212 0.0 0.9 0.00 0.00 0.00 76 1008.2
20260505121535 48 0 0.0 0.0 0.00 0.00 0.00 76 1008.0
20260505121012 48 0 0.0 0.0 0.00 0.00 0.00 75 1008.0
20260505120511 48 0 0.0 0.0 0.00 0.00 0.00 75 1008.0
20260505120042 48 0 0.0 0.9 0.00 0.00 0.00 75 1007.8
20260505115513 48 0 0.0 0.9 0.00 0.00 0.00 75 1007.8
20260505115009 48 0 0.0 0.9 0.00 0.00 0.00 75 1007.8
20260505114527 48 0 0.0 0.9 0.00 0.00 0.00 75 1007.6
20260505114012 48 212 0.0 0.9 0.00 0.00 0.00 75 1007.6
20260505113511 48 0 0.0 0.0 0.00 0.00 0.00 75 1007.6
20260505113028 49 0 0.0 0.0 0.00 0.00 0.00 75 1007.4
20260505112512 49 0 0.0 0.0 0.00 0.00 0.00 75 1007.4
20260505112011 49 0 0.0 0.0 0.00 0.00 0.00 74 1007.2
20260505111528 49 0 0.0 0.0 0.00 0.00 0.00 74 1007.1
20260505111012 49 0 0.0 0.0 0.00 0.00 0.00 74 1007.0
20260505110510 49 0 0.0 0.0 0.00 0.00 0.00 73 1006.9
20260505102011 51 0 0.0 0.0 0.00 0.00 0.00 69 1006.5
20260505101541 51 0 0.0 0.0 0.00 0.00 0.00 68 1006.4
20260505101017 51 0 0.0 0.0 0.00 0.00 0.00 68 1006.4
20260505100512 52 0 0.0 0.0 0.00 0.00 0.00 68 1006.3
20260505100029 52 0 0.0 0.9 0.00 0.00 0.00 67 1006.1
20260505095514 52 0 0.0 0.9 0.00 0.00 0.00 67 1006.1
20260505095011 52 0 0.0 0.0 0.00 0.00 0.00 66 1006.0
20260505094535 53 0 0.0 0.0 0.00 0.00 0.00 66 1005.9
20260505094010 53 0 0.0 0.0 0.00 0.00 0.00 65 1005.8
20260505093512 53 0 0.0 0.0 0.00 0.00 0.00 64 1005.6
20260505093031 54 0 0.0 0.9 0.00 0.00 0.00 64 1005.7
20260505092513 54 0 0.0 0.9 0.00 0.00 0.00 63 1005.5
20260505092012 55 297 0.0 0.9 0.00 0.00 0.00 62 1005.4
20260505091534 55 0 0.0 0.0 0.00 0.00 0.00 60 1005.4
20260505091010 55 0 0.0 0.9 0.00 0.00 0.00 61 1005.4
20260505090511 55 0 0.0 0.9 0.00 0.00 0.00 60 1005.5
20260505090027 55 0 0.0 0.9 0.00 0.00 0.00 60 1005.5
20260505085509 56 0 0.0 0.9 0.00 0.00 0.00 59 1005.3
20260505085011 57 202 0.0 4.3 0.00 0.00 0.00 58 1005.2
20260505084529 57 191 0.0 6.1 0.00 0.00 0.00 56 1005.1
20260505084010 58 182 1.7 6.1 0.00 0.00 0.00 56 1005.2
20260505083512 56 325 0.9 5.2 0.00 0.00 0.00 58 1004.8
20260505083030 56 291 0.0 5.2 0.00 0.00 0.00 59 1004.8
20260505082514 55 0 0.0 0.9 0.00 0.00 0.00 60 1004.7
20260505082014 55 0 0.0 0.9 0.00 0.00 0.00 59 1004.7
20260505081530 56 300 0.0 0.9 0.00 0.00 0.00 59 1004.6
20260505081016 56 0 0.0 0.9 0.00 0.00 0.00 58 1004.6
20260505080510 56 0 0.0 2.6 0.00 0.00 0.00 58 1004.7
20260505080027 57 0 0.9 2.6 0.00 0.00 0.00 57 1004.6
20260505075514 57 0 0.0 1.7 0.00 0.00 0.00 56 1004.6
20260505075016 57 0 0.0 2.6 0.00 0.00 0.00 56 1004.4
20260505074529 57 267 0.9 2.6 0.00 0.00 0.00 55 1004.5
20260505074008 58 0 0.0 0.9 0.00 0.00 0.00 55 1004.6
20260505073511 58 236 0.0 2.6 0.00 0.00 0.00 53 1004.3
20260505073030 58 181 0.9 2.6 0.00 0.00 0.00 54 1004.5
20260505072510 59 267 0.9 2.6 0.00 0.00 0.00 53 1004.2
20260505072009 59 115 0.0 2.6 0.00 0.00 0.00 53 1004.3
20260505071532 59 104 0.0 2.6 0.00 0.00 0.00 52 1004.3
20260505071010 60 237 0.0 1.7 0.00 0.00 0.00 51 1004.2
20260505070513 60 0 0.0 1.7 0.00 0.00 0.00 50 1004.3
20260505070028 61 282 0.9 1.7 0.00 0.00 0.00 49 1004.0
20260505065507 62 0 0.0 3.5 0.00 0.00 0.00 48 1004.2
20260505065008 62 187 0.0 3.5 0.00 0.00 0.00 47 1004.1
20260505064526 62 187 0.9 3.5 0.00 0.00 0.00 47 1004.0
20260505064010 61 72 0.9 3.5 0.00 0.00 0.00 49 1004.1
20260505063508 60 265 0.0 3.5 0.00 0.00 0.00 49 1003.7
20260505063026 61 0 0.0 2.6 0.00 0.00 0.00 49 1004.0
20260505062510 61 354 0.9 2.6 0.00 0.00 0.00 49 1004.0
20260505062012 61 78 0.9 2.6 0.00 0.00 0.00 49 1003.9
20260505061527 61 297 0.0 3.5 0.00 0.00 0.00 48 1004.0
20260505061006 61 0 0.9 3.5 0.00 0.00 0.00 49 1003.9
20260505060511 61 340 0.0 2.6 0.00 0.00 0.00 48 1003.9
20260505060042 62 0 0.0 2.6 0.00 0.00 0.00 47 1004.0
20260505055515 62 0 0.0 1.7 0.00 0.00 0.00 46 1003.9
20260505055014 63 87 0.0 1.7 0.00 0.00 0.00 46 1004.0
20260505054529 63 60 0.0 0.9 0.00 0.00 0.00 45 1003.9
20260505054013 63 0 0.0 0.9 0.00 0.00 0.00 43 1003.8
20260505053513 64 0 0.0 0.9 0.00 0.00 0.00 43 1003.9
20260505053026 64 193 0.0 1.7 0.00 0.00 0.00 42 1003.9
20260505052511 64 0 0.0 1.7 0.00 0.00 0.00 43 1003.9
20260505052009 64 0 0.0 1.7 0.00 0.00 0.00 43 1003.8
20260505051529 64 0 0.0 0.9 0.00 0.00 0.00 43 1003.8
20260505051010 65 0 0.0 0.9 0.00 0.00 0.00 42 1003.7
20260505050509 65 72 0.0 0.9 0.00 0.00 0.00 41 1003.6
20260505041528 67 0 0.0 0.9 0.00 0.00 0.00 39 1003.7
20260505041010 67 0 0.0 0.9 0.00 0.00 0.00 38 1003.7
20260505040511 68 0 0.0 0.0 0.00 0.00 0.00 38 1003.6
20260505040028 68 0 0.0 0.0 0.00 0.00 0.00 38 1003.6
20260505035510 69 0 0.0 0.9 0.00 0.00 0.00 38 1003.5
20260505035010 69 0 0.0 0.9 0.00 0.00 0.00 38 1003.5
20260505034527 69 0 0.0 0.9 0.00 0.00 0.00 37 1003.5
20260505034010 70 13 0.0 0.9 0.00 0.00 0.00 37 1003.5
20260505033510 70 0 0.0 0.9 0.00 0.00 0.00 36 1003.4
20260505033029 71 0 0.0 0.9 0.00 0.00 0.00 36 1003.4
20260505032508 71 0 0.0 0.9 0.00 0.00 0.00 35 1003.4
20260505032012 71 0 0.0 0.9 0.00 0.00 0.00 35 1003.4
20260505031529 72 11 0.0 1.7 0.00 0.00 0.00 35 1003.4
20260505031008 72 6 0.0 1.7 0.00 0.00 0.00 34 1003.4
20260505030512 73 6 0.0 1.7 0.00 0.00 0.00 33 1003.3
20260505030028 73 18 0.0 2.6 0.00 0.00 0.00 33 1003.4
20260505025515 73 53 0.0 2.6 0.00 0.00 0.00 32 1003.5
20260505025011 74 331 0.0 2.6 0.00 0.00 0.00 32 1003.4
20260505024527 74 349 0.9 2.6 0.00 0.00 0.00 31 1003.5
20260505024011 75 352 0.0 3.5 0.00 0.00 0.00 31 1003.3
20260505023508 75 5 0.9 5.2 0.00 0.00 0.00 31 1003.3
20260505023027 76 3 0.9 5.2 0.00 0.00 0.00 31 1003.2
20260505022508 76 346 0.9 3.5 0.00 0.00 0.00 31 1003.2
20260505022013 76 89 0.9 7.0 0.00 0.00 0.00 31 1003.2
20260505021530 76 13 1.7 7.0 0.00 0.00 0.00 30 1003.2
20260505021007 76 24 1.7 6.1 0.00 0.00 0.00 30 1003.2
20260505020507 77 104 0.9 9.6 0.00 0.00 0.00 31 1003.2
20260505020027 77 352 1.7 9.6 0.00 0.00 0.00 30 1003.2
20260505015508 77 26 1.7 8.7 0.00 0.00 0.00 30 1003.2
20260505015011 78 7 1.7 8.7 0.00 0.00 0.00 30 1003.2
20260505014558 78 11 1.7 7.8 0.00 0.00 0.00 30 1003.2
20260505014015 78 21 0.9 3.5 0.00 0.00 0.00 29 1003.2
20260505013510 78 10 0.9 4.3 0.00 0.00 0.00 28 1003.2
20260505013026 79 0 0.9 7.0 0.00 0.00 0.00 27 1003.3
20260505012508 79 68 1.7 11.3 0.00 0.00 0.00 26 1003.3
20260505012010 79 49 2.6 11.3 0.00 0.00 0.00 25 1003.3
20260505011526 79 89 1.7 3.5 0.00 0.00 0.00 26 1003.3
20260505011008 79 12 0.9 5.2 0.00 0.00 0.00 25 1003.5
20260505010512 79 14 1.7 6.1 0.00 0.00 0.00 24 1003.5
20260505010026 79 6 1.7 6.1 0.00 0.00 0.00 24 1003.5
20260505005509 79 346 1.7 7.0 0.00 0.00 0.00 25 1003.5
20260505005008 80 14 1.7 7.0 0.00 0.00 0.00 24 1003.6
20260505004530 80 35 0.9 8.7 0.00 0.00 0.00 24 1003.6
20260505004008 80 20 2.6 11.3 0.00 0.00 0.00 23 1003.7
20260505003516 80 33 3.5 11.3 0.00 0.00 0.00 22 1003.8
20260505003033 80 80 2.6 11.3 0.00 0.00 0.00 23 1003.8
20260505002512 80 9 3.5 8.7 0.00 0.00 0.00 23 1003.9
20260505002012 81 52 2.6 8.7 0.00 0.00 0.00 24 1003.8
20260505001527 82 11 1.7 8.7 0.00 0.00 0.00 25 1003.8
20260505001008 82 30 1.7 5.2 0.00 0.00 0.00 25 1003.8
20260505000508 82 347 1.7 4.3 0.00 0.00 0.00 23 1003.8
20260505000031 83 298 1.7 7.0 0.00 0.00 0.00 23 1003.9
20260504235508 82 352 1.7 7.0 0.00 0.00 0.00 24 1003.9
20260504235011 82 58 1.7 7.8 0.00 0.00 0.00 24 1004.0
20260504234526 82 16 2.6 7.8 0.00 0.00 0.00 26 1004.0
20260504234009 82 20 1.7 6.1 0.00 0.00 0.00 27 1004.1
20260504233509 83 21 2.6 7.8 0.00 0.00 0.00 27 1004.1
20260504233028 82 0 0.0 7.8 0.00 0.00 0.00 29 1004.1
20260504232511 82 49 2.6 6.1 0.00 0.00 0.00 28 1004.3
20260504232010 82 340 1.7 5.2 0.00 0.00 0.00 28 1004.2
20260504231527 82 84 1.7 5.2 0.00 0.00 0.00 28 1004.2
20260504231009 82 334 0.9 8.7 0.00 0.00 0.00 29 1004.3
20260504230508 82 35 2.6 8.7 0.00 0.00 0.00 29 1004.4
20260504230029 82 334 3.5 7.8 0.00 0.00 0.00 28 1004.4
20260504225509 83 313 0.9 7.8 0.00 0.00 0.00 28 1004.5
20260504225012 83 33 0.9 5.2 0.00 0.00 0.00 29 1004.6
20260504224529 82 347 0.9 8.7 0.00 0.00 0.00 30 1004.6
20260504224007 82 27 1.7 8.7 0.00 0.00 0.00 30 1004.6
20260504223509 82 11 0.9 4.3 0.00 0.00 0.00 30 1004.7
20260504223026 82 353 0.9 7.0 0.00 0.00 0.00 29 1004.7
20260504222509 81 0 0.9 7.0 0.00 0.00 0.00 30 1005.0
20260504222014 81 313 1.7 5.2 0.00 0.00 0.00 29 1004.9
20260504221528 81 328 0.9 4.3 0.00 0.00 0.00 30 1005.0
20260504221010 81 353 0.9 7.8 0.00 0.00 0.00 32 1005.2
20260504220511 81 1 3.5 7.8 0.00 0.00 0.00 30 1005.2
20260504220039 81 350 2.6 7.8 0.00 0.00 0.00 29 1005.3
20260504215508 81 352 0.9 6.1 0.00 0.00 0.00 30 1005.3
20260504215010 81 342 1.7 6.1 0.00 0.00 0.00 30 1005.4
20260504214528 81 342 1.7 6.1 0.00 0.00 0.00 31 1005.4
20260504214017 81 337 0.9 6.1 0.00 0.00 0.00 33 1005.6
20260504213511 81 328 0.9 4.3 0.00 0.00 0.00 31 1005.6
20260504213027 81 340 1.7 5.2 0.00 0.00 0.00 31 1005.8
20260504212511 80 34 0.9 5.2 0.00 0.00 0.00 32 1005.8
20260504212010 80 335 1.7 6.1 0.00 0.00 0.00 33 1005.8
20260504211533 81 330 2.6 6.1 0.00 0.00 0.00 33 1005.9
20260504211008 81 349 0.9 5.2 0.00 0.00 0.00 33 1006.1
20260504210508 81 336 1.7 5.2 0.00 0.00 0.00 34 1006.2
20260504210028 81 359 1.7 5.2 0.00 0.00 0.00 32 1006.3
20260504205514 80 302 0.0 3.5 0.00 0.00 0.00 34 1006.3
20260504205010 80 248 0.9 6.1 0.00 0.00 0.00 35 1006.5
20260504204530 79 355 1.7 6.1 0.00 0.00 0.00 34 1006.6
20260504204010 79 347 1.7 5.2 0.00 0.00 0.00 35 1006.6
20260504203513 79 345 1.7 6.1 0.00 0.00 0.00 35 1006.6
20260504203029 79 342 1.7 6.1 0.00 0.00 0.00 34 1006.6
20260504202509 79 347 1.7 5.2 0.00 0.00 0.00 34 1006.6
20260504202008 79 84 0.9 5.2 0.00 0.00 0.00 33 1006.7
20260504201528 79 329 0.9 4.3 0.00 0.00 0.00 34 1006.7
20260504201007 78 55 0.9 4.3 0.00 0.00 0.00 36 1006.8
20260504200508 78 345 1.7 6.1 0.00 0.00 0.00 35 1006.9
20260504200028 78 340 1.7 6.1 0.00 0.00 0.00 34 1006.8
20260504195508 78 12 1.7 5.2 0.00 0.00 0.00 33 1006.9
20260504195008 77 49 1.7 7.0 0.00 0.00 0.00 36 1007.0
20260504194528 77 10 2.6 7.0 0.00 0.00 0.00 34 1006.9
20260504194009 77 96 1.7 5.2 0.00 0.00 0.00 33 1007.1
20260504193510 77 51 2.6 5.2 0.00 0.00 0.00 34 1007.2
20260504193028 77 0 0.9 5.2 0.00 0.00 0.00 35 1007.2
20260504192509 77 355 0.9 5.2 0.00 0.00 0.00 36 1007.4
20260504192011 77 20 1.7 5.2 0.00 0.00 0.00 34 1007.3
20260504191526 77 25 0.9 4.3 0.00 0.00 0.00 38 1007.5
20260504191009 76 68 0.9 5.2 0.00 0.00 0.00 36 1007.4
20260504190509 76 142 1.7 5.2 0.00 0.00 0.00 36 1007.5
20260504190028 76 81 0.9 4.3 0.00 0.00 0.00 37 1007.6
20260504185512 76 312 0.9 4.3 0.00 0.00 0.00 39 1007.6
20260504185015 75 9 0.9 4.3 0.00 0.00 0.00 41 1007.7
20260504184528 74 59 1.7 5.2 0.00 0.00 0.00 40 1007.7
20260504184012 74 32 1.7 5.2 0.00 0.00 0.00 41 1007.8
20260504183512 73 34 1.7 7.0 0.00 0.00 0.00 43 1007.9
20260504183026 73 75 1.7 7.0 0.00 0.00 0.00 41 1007.9
20260504182511 73 11 0.9 4.3 0.00 0.00 0.00 39 1008.0
20260504182012 73 0 0.0 5.2 0.00 0.00 0.00 42 1008.1
20260504181532 73 108 0.9 5.2 0.00 0.00 0.00 41 1008.2
20260504181011 73 29 0.0 4.3 0.00 0.00 0.00 43 1008.2
20260504180511 73 3 0.9 4.3 0.00 0.00 0.00 44 1008.2
20260504180030 73 39 0.0 5.2 0.00 0.00 0.00 42 1008.3
20260504175509 72 317 0.9 5.2 0.00 0.00 0.00 44 1008.3
20260504175009 72 55 1.7 5.2 0.00 0.00 0.00 41 1008.4
20260504174528 72 0 0.0 2.6 0.00 0.00 0.00 42 1008.5
20260504174010 72 338 0.9 2.6 0.00 0.00 0.00 43 1008.4
20260504173509 72 11 0.9 2.6 0.00 0.00 0.00 43 1008.6
20260504173032 72 16 0.0 2.6 0.00 0.00 0.00 43 1008.6
20260504172509 71 181 0.9 1.7 0.00 0.00 0.00 41 1008.5
20260504172011 71 222 0.0 3.5 0.00 0.00 0.00 44 1008.6
20260504171532 70 36 0.9 3.5 0.00 0.00 0.00 44 1008.7
20260504171014 70 343 0.0 3.5 0.00 0.00 0.00 45 1008.7
20260504170508 70 64 0.0 3.5 0.00 0.00 0.00 45 1008.7
20260504151012 59 0 0.0 0.9 0.00 0.00 0.00 58 1008.8
20260504150512 58 0 0.0 0.9 0.00 0.00 0.00 61 1008.9
20260504141009 49 0 0.0 0.0 0.00 0.00 0.00 77 1008.8
20260504140508 49 0 0.0 0.0 0.00 0.00 0.00 79 1008.8